Retour au catalogue

STARLINK-34734

ActifCommunicationsVLEO
NORAD 65696·PAYLOAD·🇺🇸 United States

Lancé Sep 21, 2025 depuis Cape Canaveral Space Force Station

Loading…

Prochains Passages (prochaines 24 heures)

TLE

FraisSource: CelesTrak SupGP

Époque: Sep 14, 2026, 21:02 UTC

1 65696C 25212W   26257.87687500  .00007124  00000+0  22894-3 0  2575
2 65696  53.1574 185.2348 0001171 103.9104 220.8085 15.31716986    11

Suivez STARLINK-34734 en temps réel avec AllMySat

Download on the App Store